Location: Newark
(7.1028°S, 35.3258°W)
Time: 15:29:29
(UTC+00:00)

Vanguard 3 - Pass Details

Date: 02 March 2020
Orbit: 508 x 3262 km, 33.3° (Epoch: 31 March)

Event Time Altitude Azimuth Distance (km) Brightness Sun altitude
Rises 00:22:15 0° 236° (SW) 7,215 12.5 -54.3°
Reaches altitude 10° 00:28:55 10° 224° (SW) 6,033 11.9 -55.9°
Enters shadow 00:42:36 26° 176° (S) 4,076 10.6 -58.9°
